Weather History for Owensboro, KY

Change the Weather History Date:

Tuesday, March 25, 2014

  Actual Average Record
Temperature  
Mean Temperature 33 °F -  
Max Temperature 39 °F 59 °F 83 °F (2007)
Min Temperature 27 °F 37 °F 17 °F (1940)
Degree Days  
Heating Degree Days 32    
Moisture  
Dew Point 23 °F    
Average Humidity 77    
Maximum Humidity 100    
Minimum Humidity 28    
Precipitation  
Precipitation 0.00 in - - ()
Sea Level Pressure  
Sea Level Pressure 30.17 in    
Wind  
Wind Speed 8 mph (NW)    
Max Wind Speed 26 mph    
Max Gust Speed 37 mph    
Visibility 6 miles    
Events Snow    
Averages and records for this station are not official NWS values.
T = Trace of Precipitation, MM = Missing Value Source: NWS Daily Summary

Daily Weather History Graph

Daily Weather History Graph

Search for Another Location

Airport:

Trip Planner

Search our weather history database for the weather conditions in past years. The results will help you decide how hot, cold, wet, or windy it might be!

Date:

Astronomy

Mar. 25, 2014 Rise Set
Actual Time 6:44 AM CDT 7:05 PM CDT
Civil Twilight 6:18 AM CDT 7:31 PM CDT
Nautical Twilight 5:47 AM CDT 8:02 PM CDT
Astronomical Twilight 5:16 AM CDT 8:33 PM CDT
Moon 3:00 AM CDT (3/25) 1:40 PM CDT (3/25)
Length of Visible Light 13h 13m
Length of Day
12h 20m
Waning Crescent, 32% of the Moon is Illuminated
Mar 25
Waning Crescent
Mar 30
New
Apr 7
First Quarter
Apr 15
Full
Apr 22
Last Quarter

Hourly Weather History & Observations

Time (CDT) Temp. Windchill Dew Point Humidity Pressure Visibility Wind Dir Wind Speed Gust Speed Precip Events Conditions
12:10 AM 30.2 °F 25.4 °F 26.6 °F 86% 30.17 in 3.0 mi North 4.6 mph - 0.00 in Snow Light Snow
12:28 AM 30.2 °F 25.4 °F 28.4 °F 93% 30.16 in 2.5 mi NNW 4.6 mph - 0.00 in Snow Light Snow
12:39 AM 30.2 °F - 28.4 °F 93% 30.16 in 1.8 mi Calm Calm - 0.00 in Snow Light Snow
12:56 AM 30.0 °F 26.5 °F 30.0 °F 100% 30.17 in 1.8 mi NNW 3.5 mph - 0.00 in Snow Light Snow
1:06 AM 30.2 °F 24.3 °F 30.2 °F 100% 30.15 in 2.0 mi North 5.8 mph - 0.00 in Snow Light Snow
1:13 AM 30.2 °F 24.3 °F 30.2 °F 100% 30.14 in 3.0 mi North 5.8 mph - 0.00 in Snow Light Snow
1:27 AM 30.2 °F 24.3 °F 30.2 °F 100% 30.14 in 7.0 mi North 5.8 mph - 0.00 in Snow Light Snow
1:56 AM 30.0 °F 25.2 °F 30.0 °F 100% 30.14 in 3.0 mi North 4.6 mph - 0.00 in Snow Light Snow
2:20 AM 30.2 °F - 30.2 °F 100% 30.13 in 9.0 mi Calm Calm - 0.00 in Snow Light Snow
2:56 AM 29.1 °F 23.0 °F 29.1 °F 100% 30.12 in 6.0 mi North 5.8 mph - 0.00 in Snow Light Snow
3:29 AM 28.4 °F - 28.4 °F 100% 30.09 in 4.0 mi Calm Calm - 0.00 in Snow Light Snow
3:40 AM 28.4 °F - 28.4 °F 100% 30.09 in 7.0 mi Calm Calm - 0.00 in Snow Light Snow
3:56 AM 29.1 °F - 29.1 °F 100% 30.10 in 9.0 mi Calm Calm - 0.00 in   Mostly Cloudy
4:56 AM 28.0 °F - 28.0 °F 100% 30.09 in 7.0 mi Calm Calm - 0.00 in   Partly Cloudy
5:56 AM 28.0 °F 21.7 °F 28.0 °F 100% 30.09 in 5.0 mi West 5.8 mph - N/A   Overcast
6:39 AM 28.4 °F 19.7 °F 28.4 °F 100% 30.09 in 1.5 mi West 9.2 mph - 0.00 in Snow Light Snow
6:56 AM 29.1 °F 21.3 °F 29.1 °F 100% 30.11 in 1.2 mi West 8.1 mph - 0.00 in Snow Light Snow
7:56 AM 30.0 °F 22.4 °F 30.0 °F 100% 30.12 in 1.5 mi West 8.1 mph - 0.00 in Snow Light Snow
8:23 AM 30.2 °F 20.8 °F 30.2 °F 100% 30.11 in 0.8 mi West 11.5 mph - 0.00 in Snow Light Snow
8:56 AM 30.0 °F 20.5 °F 30.0 °F 100% 30.14 in 0.8 mi WNW 11.5 mph - 0.00 in Snow Light Snow
9:18 AM 30.2 °F 21.9 °F 30.2 °F 100% 30.13 in 1.5 mi West 9.2 mph - 0.00 in Snow Light Snow
9:56 AM 31.1 °F 20.5 °F 31.1 °F 100% 30.15 in 4.0 mi WNW 15.0 mph - 0.00 in Snow Light Snow
10:29 AM 33.8 °F 22.5 °F 30.2 °F 87% 30.15 in 7.0 mi NW 19.6 mph 27.6 mph 0.00 in   Mostly Cloudy
10:56 AM 34.9 °F 22.7 °F 22.1 °F 60% 30.17 in 10.0 mi NW 24.2 mph 33.4 mph 0.00 in   Scattered Clouds
11:56 AM 36.9 °F 25.1 °F 13.1 °F 38% 30.18 in 10.0 mi NW 25.3 mph 36.8 mph N/A   Scattered Clouds
12:56 PM 38.8 °F 28.5 °F 8.1 °F 28% 30.19 in 10.0 mi NW 21.9 mph 31.1 mph N/A   Scattered Clouds
1:56 PM 39.9 °F 29.0 °F 9.1 °F 28% 30.19 in 10.0 mi NW 26.5 mph 31.1 mph N/A   Mostly Cloudy
2:56 PM 37.9 °F 27.6 °F 8.1 °F 29% 30.19 in 10.0 mi NNW 20.7 mph 27.6 mph N/A   Mostly Cloudy
3:56 PM 36.9 °F 25.9 °F 12.0 °F 36% 30.20 in 10.0 mi NNW 21.9 mph 27.6 mph N/A   Mostly Cloudy
4:56 PM 36.9 °F 26.8 °F 19.0 °F 49% 30.21 in 10.0 mi NNW 18.4 mph 25.3 mph 0.00 in   Mostly Cloudy
5:56 PM 36.0 °F 25.6 °F 17.1 °F 46% 30.22 in 10.0 mi NW 18.4 mph 23.0 mph 0.00 in   Scattered Clouds
6:56 PM 34.9 °F 23.9 °F 12.0 °F 39% 30.23 in 10.0 mi NW 19.6 mph 25.3 mph N/A   Mostly Cloudy
7:56 PM 32.0 °F 22.5 °F 11.1 °F 42% 30.25 in 10.0 mi NNW 12.7 mph - N/A   Partly Cloudy
8:56 PM 31.1 °F 23.1 °F 12.0 °F 45% 30.27 in 10.0 mi NNW 9.2 mph - N/A   Clear
9:56 PM 29.1 °F 20.6 °F 13.1 °F 51% 30.30 in 10.0 mi NW 9.2 mph - N/A   Clear
10:56 PM 27.1 °F 19.7 °F 14.0 °F 58% 30.30 in 10.0 mi NW 6.9 mph - N/A   Clear
11:56 PM 27.1 °F 18.2 °F 12.0 °F 53% 30.31 in 10.0 mi NNW 9.2 mph - N/A   Clear